Regional Weather Roundup
Issued by NWS

Home | Current Version | Previous Version | Graphics & Text | Print | Product List | Glossary On
Versions: 1 2 3 4 5 6 7 8 9 10 11 12 13 14 15 16 17 18 19 20 21 22 23 24 25 26 27 28 29 30 31 32 33 34 35 36 37 38 39 40 41 42 43 44 45 46 47 48 49 50
000
ASUS43 KLSX 010859
RWRMO

WEATHER SUMMARY FOR MISSOURI
NATIONAL WEATHER SERVICE SPRINGFIELD MO
400 AM CDT SAT AUG 01 2015

NOTE: "FAIR" INDICATES FEW OR NO CLOUDS BELOW 12,000 FEET WITH NO
       SIGNIFICANT WEATHER AND/OR OBSTRUCTIONS TO VISIBILITY.
       CURRENT SKY AND/OR WEATHER CONDITIONS ARE NOT AVAILABLE FOR
       CHILLICOTHE AND FARMINGTON.

MOZ001>031-035>038-043-044-053-054-011000-
...NORTHERN AND WESTERN MISSOURI...

CITY           SKY/WX    TMP DP  RH WIND       PRES   REMARKS
KANSAS CTY INT CLEAR     73  69  87 CALM      30.06R
KANSAS C DTWN  CLEAR     77  67  71 SW3       30.04S
LEE`S SUMMIT   CLEAR     73  64  73 SW6       30.06F
ST JOSEPH      CLEAR     72  69  90 S3        30.05S
CHILLICOTHE      N/A     71  67  87 CALM      30.06S
KIRKSVILLE     LGT RAIN  71  67  87 NE10      30.07R

$$
MOZ066>068-077>081-088>096-101>105-011000-
...SOUTHWEST MISSOURI...

CITY           SKY/WX    TMP DP  RH WIND       PRES   REMARKS
SPRINGFIELD    CLEAR     64  59  83 CALM      30.08S
JOPLIN         CLEAR     62  58  86 CALM      30.08S

$$
MOZ032>034-039>042-045>050-055>058-069>072-011000-
...CENTRAL MISSOURI...

CITY           SKY/WX    TMP DP  RH WIND       PRES   REMARKS
COLUMBIA       CLEAR     74  67  78 SW3       30.06S
JEFFERSON CITY CLEAR     68  66  93 CALM      30.05R
ROLLA          CLEAR     66  62  87 W5        30.06S
SEDALIA        CLEAR     72  65  78 SW6       30.06F
WHITEMAN AFB   CLEAR     69  64  85 SW5       30.04F
WARRENSBURG    CLEAR     70  63  78 CALM      30.05S
OSAGE BEACH    CLEAR     66  63  88 CALM      30.07S

$$
MOZ051-052-059>065-011000-
...EAST CENTRAL MISSOURI...

CITY           SKY/WX    TMP DP  RH WIND       PRES   REMARKS
ST LOUIS INTL  PTCLDY    74  66  76 N6        30.04S
SPIRIT OF STL  CLEAR     68  67  96 CALM      30.02F
ST CHARLES     CLEAR     70  69  97 S3        30.02S

$$
MOZ072>076-082>087-097>100-106>115-011000-
...SOUTH CENTRAL AND SOUTHEAST MISSOURI...

CITY           SKY/WX    TMP DP  RH WIND       PRES   REMARKS
CAPE GIRARDEAU CLEAR     67  67 100 CALM      30.02S
FARMINGTON     CLEAR     64  63  94 CALM      30.10R
POPLAR BLUFF   CLEAR     69  68  96 CALM      30.01F
WEST PLAINS    CLEAR     67  62  84 CALM      30.10S

$$



USA.gov is the U.S. government's official web portal to all federal, state and local government web resources and services.